Regional Weather Roundup
Issued by NWS

Home | Current Version | Previous Version | Text Only | Print | Product List | Glossary On
Versions: 1 2 3 4 5 6 7 8 9 10 11 12 13 14 15 16 17 18 19 20 21 22 23 24 25 26 27 28 29 30 31 32 33 34 35 36 37 38 39 40 41 42 43 44 45 46 47 48 49 50
000
ASUS43 KLSX 291607
RWRMO

WEATHER SUMMARY FOR MISSOURI
NATIONAL WEATHER SERVICE SPRINGFIELD MO
1000 AM CST THU JAN 29 2015

NOTE: "FAIR" INDICATES FEW OR NO CLOUDS BELOW 12,000 FEET WITH NO
       SIGNIFICANT WEATHER AND/OR OBSTRUCTIONS TO VISIBILITY.
       CURRENT SKY AND/OR WEATHER CONDITIONS ARE NOT AVAILABLE FOR
       CHILLICOTHE AND FARMINGTON.

MOZ001>031-035>038-043-044-053-054-291700-
...NORTHERN AND WESTERN MISSOURI...

CITY           SKY/WX    TMP DP  RH WIND       PRES   REMARKS
KANSAS CTY INT CLOUDY    38  27  64 N23G35    30.30R WCI  27
KANSAS C DTWN  CLOUDY    40  27  59 N18G28    30.30R
LEE`S SUMMIT   CLOUDY    38  28  67 NW21G29   30.30R WCI  28
ST JOSEPH      CLOUDY    40  27  59 N23G31    30.31R WCI  30
CHILLICOTHE      N/A     39  30  70 NW13      30.25R
KIRKSVILLE     CLOUDY    37  30  75 NW15G25   30.19R WCI  28

$$
MOZ066>068-077>081-088>096-101>105-291700-
...SOUTHWEST MISSOURI...

CITY           SKY/WX    TMP DP  RH WIND       PRES   REMARKS
SPRINGFIELD    CLOUDY    40  33  76 NW20      30.24R
JOPLIN         CLOUDY    41  32  70 N15       30.32R

$$
MOZ032>034-039>042-045>050-055>058-069>072-291700-
...CENTRAL MISSOURI...

CITY           SKY/WX    TMP DP  RH WIND       PRES   REMARKS
COLUMBIA       CLOUDY    39  31  72 NW20      30.19R WCI  29
JEFFERSON CITY CLOUDY    41  31  67 NW14      30.20R
ROLLA          CLOUDY    38  33  82 NW20G29   30.14R WCI  28
SEDALIA        CLOUDY    40  29  64 NW23G33   30.25R WCI  30
WHITEMAN AFB   CLOUDY    39  28  64 N24G31    30.26R WCI  28
WARRENSBURG    CLOUDY    37  30  75 NW14G23   30.28R WCI  29
OSAGE BEACH    CLOUDY    39  28  65 NW9G23    30.22R

$$
MOZ051-052-059>065-291700-
...EAST CENTRAL MISSOURI...

CITY           SKY/WX    TMP DP  RH WIND       PRES   REMARKS
ST LOUIS INTL  CLOUDY    40  30  67 NW16G26   30.11R
SPIRIT OF STL  CLOUDY    40  30  67 NW23G35   30.12R WCI  30
ST CHARLES     CLOUDY    39  31  72 NW21G33   30.11R WCI  29

$$
MOZ072>076-082>087-097>100-106>115-291700-
...SOUTH CENTRAL AND SOUTHEAST MISSOURI...

CITY           SKY/WX    TMP DP  RH WIND       PRES   REMARKS
CAPE GIRARDEAU PTSUNNY   50  38  63 NW18G29   30.08
FARMINGTON     CLOUDY    41  30  65 NW10G18   30.14R
POPLAR BLUFF   SUNNY     53  37  54 NW13G22   30.08R
WEST PLAINS    CLOUDY    44  34  67 NW13      30.16R

$$



USA.gov is the U.S. government's official web portal to all federal, state and local government web resources and services.